Regional Weather Roundup
Issued by NWS Albany, NY

Home | Current Version | Previous Version | Graphics & Text | Print | Product List | Glossary Off
Versions: 1 2 3 4 5 6 7 8 9 10 11 12 13 14 15 16 17 18 19 20 21 22 23 24 25 26 27

000
ASUS41 KALY 181010
RWRALY

NEW YORK STATE HOURLY WEATHER ROUNDUP
NATIONAL WEATHER SERVICE ALBANY NY
500 AM EST SUN FEB 18 2018

NOTE: "FAIR" INDICATES FEW OR NO CLOUDS BELOW 12,000 FEET WITH NO
SIGNIFICANT WEATHER AND/OR NO OBSTRUCTIONS TO VISIBILITY.

NYZ032-033-038>043-046>054-057>066-NYZ062>081-082-084-181100-
EAST


CITY           SKY/WX    TMP DP  RH WIND       PRES   REMARKS
ALBANY         FLURRIES  30  27  88 CALM      30.02R
GLENS FALLS    CLOUDY    27  27 100 CALM      30.00R
POUGHKEEPSIE   FAIR      29  27  92 SW7       30.01R WCI  22
NEWBURGH       MOCLDY    30  30 100 W9        30.01R WCI  22
MONTGOMERY     FAIR      27  25  92 SW6       30.01R WCI  20
WHITE PLAINS   FAIR      32  30  92 W9        29.99R WCI  24
ISLIP          CLOUDY    33  33 100 W13       30.00R WCI  24
NEW YORK CITY  MOCLDY    36  31  82 W10       30.03R WCI  28
CENTRAL PARK   FAIR      34  31  88 W7        30.05R WCI  28
$$

NYZ005>009-017-018-044>046-055-056-181100-
CENTRAL


CITY           SKY/WX    TMP DP  RH WIND       PRES   REMARKS
FULTON         CLOUDY    29  26  89 W8        30.09R WCI  21
SYRACUSE       CLOUDY    27  26  96 W9        30.09R WCI  18
ROME           CLOUDY    29  27  92 W10       30.08R WCI  20
ELMIRA         CLOUDY    31  23  72 W5        30.09R WCI  26
BINGHAMTON     CLOUDY    26  22  84 NW9       30.03R WCI  17
MONTICELLO     MIX PCPN  28  27  93 W15       30.01R WCI  17
$$

NYZ026>034-041>043-087-181100-
NORTH


CITY           SKY/WX    TMP DP  RH WIND       PRES   REMARKS
WATERTOWN      CLOUDY    29  27  92 SW6       30.06R WCI  23
FORT DRUM      NOT AVBL
OGDENSBURG     FAIR      28  24  82 MISG      30.04R
MASSENA        CLOUDY    28  22  78 SW7       30.04R WCI  21
SARANAC LAKE   LGT SNOW  23  20  88 VRB5      29.93R FOG     WCI  17
PLATTSBURGH    CLOUDY    29  26  89 N3        30.01R
$$

NYZ001>004-010>016-019>021-085-181100-
WEST


CITY           SKY/WX    TMP DP  RH WIND       PRES   REMARKS
NIAGARA FALLS  CLOUDY    31  24  75 W14       30.13R WCI  21
BUFFALO        CLOUDY    28  27  96 SW12      30.13R WCI  18
DUNKIRK        CLOUDY    29  27  92 SW13G21   30.17R WCI  19
JAMESTOWN        N/A    N/A N/A N/A MISG        N/A
WELLSVILLE     CLOUDY    28  23  81 MISG      30.07R
ROCHESTER      FAIR      28  25  88 W7        30.11R WCI  21
PENN YAN       FAIR      30  20  66 W10       30.09R WCI  21
$$

             KEY
       WCI = WIND CHILL INDEX
       VSB = VISIBILITY
       HX  = HEAT INDEX
$$




USA.gov is the U.S. government's official web portal to all federal, state and local government web resources and services.